Condicions actuals
Partly Cloudy
Conditions



Pressió:
1024.92 (hPa) - 30.27 (inHG)
Visibilitat:

10.0 (km) - 6.2 (miles)
Base de Núvols

914 (Mts) - 3000 (Feets)
   Temperatura
13  °C
Temperatura
9  °C
P. rosada
77  %
 Humitat
   Velocitat del Vent
16  km/h
9  kts
10  mph
4.5  m/s
   Wind Direction
N
45°
E
90°
135°
S
180°
225°
O
270°
315°
 50°

Nord Est
   Airport Data
LEBL
Barcelona International Airport
Metar :LEBL 010400Z 05009KT 9999 FEW030 BKN046 13/09 Q1025 NOSIG
Mon 1st March 05:00 am
   Raw Metar Info
Raw METAR is the most common format in the world for the transmission of observational weather data. It is highly standardized through the International Civil Aviation Organization (ICAO), which allows it to be understood throughout most of the world.
   API Info
Data Provided by
https://www.checkwx.com/weather/LEBL

Aviation Weather providing METAR, TAF, AIRMET, SIGMET and OUTLOOK Weather Reports
   © Info
CSS/SVG/PHP scripts were developed by weather34.com for use in the weather34 template © 2015-2021

Guide Info provided by Metar-Wikipedia